Terminal Aerodrome Forecast
Issued by NWS

Home | Current Version | Previous Version | Text Only | Print | Product List | Glossary On
Versions: 1 2 3 4 5 6 7 8 9 10 11 12 13 14
000
FTUS46 KLOX 251700 RRA
TAFSBA
TAF
KSBA 251741Z 2518/2618 02017KT P6SM SKC WS010/36035KT
     FM260100 36008KT P6SM SKC WS010/01030KT
     FM260900 VRB03KT P6SM SKC=

USA.gov is the U.S. government's official web portal to all federal, state and local government web resources and services.